Home > Time Zones > World Clock > Weather > Japan > Kyoto > Past weeks

Flag for Japan Weather past 2 weeks in Kyoto, Japan

Now
76 °F

Mild.


Feels Like: 78 °F
Forecast: 66 / 73 °F
Wind: 3 mph from Northeast

Location: Osaka

Current Time: Sep 6, 2015 at 1:48:51 AM

Latest Report: Sep 6, 2015 at 1:00 AM


Visibility: N/A

Pressure: 29.80 "Hg

Humidity: 70%

Dew point: 65 °F

Location of KyotoLocation

Historic Weather in Kyoto — Graph

°F

Kyoto temperature yesterday

Maximum temperature yesterday: 84 °F (at 3:00 PM)
Minimum temperature yesterday: 71 °F (at 5:00 AM)
Average temperature yesterday: 78 °F

Past Weeks' High & Low Weather Summary

 TemperatureHumidityPressure
High91 °F (Aug 28, 2:00 PM)97% (Aug 30, 1:00 AM)29.96 "Hg (Aug 30, 1:00 AM)
Low71 °F (Sep 5, 5:00 AM)39% (Aug 28, 2:00 PM)29.41 "Hg (Aug 25, 3:00 PM)
Average80 °F72%29.78 "Hg
* Reported Midnight between Aug 21 and Aug 22 — Midnight between Sep 5 and Sep 6, Kyoto, Weather by CustomWeather, © 2015

Note: Actual official high and low records may vary slightly from our data, if they occured in-between our weather recording intervals... More about our weather records

Advertising

Kyoto weather history for previous 24 hours

 ConditionsComfort  
Time TempWeatherWind HumidityBarometerVisibility
12:00 AM
Sun, Sep 6
76 °FMild.5 mph71%29.81 "HgN/A
11:00 PM
Sat, Sep 5
78 °FWarm.5 mph65%29.81 "HgN/A
10:00 PM78 °FWarm.5 mph68%29.82 "HgN/A
9:00 PM80 °FOvercast.3 mph54%29.84 "Hg16 mi
8:00 PM81 °FWarm.5 mph55%29.83 "HgN/A
7:00 PM82 °FWarm.3 mph52%29.82 "HgN/A
6:00 PM82 °FOvercast.5 mph50%29.81 "Hg19 mi
5:00 PM83 °FWarm.6 mph47%29.80 "HgN/A
4:00 PM83 °FWarm.3 mph47%29.79 "HgN/A
3:00 PM84 °FOvercast.5 mph43%29.79 "Hg19 mi
2:00 PM83 °FWarm.3 mph49%29.81 "HgN/A
1:00 PM83 °FWarm.6 mph45%29.83 "HgN/A
12:00 PM82 °FOvercast.3 mph53%29.85 "Hg22 mi
11:00 AM81 °FWarm.5 mph57%29.88 "HgN/A
10:00 AM79 °FWarm.6 mph61%29.90 "HgN/A
9:00 AM77 °FOvercast.6 mph64%29.90 "Hg19 mi
8:00 AM74 °FMild.6 mph69%29.90 "HgN/A
7:00 AM73 °FMild.6 mph77%29.91 "HgN/A
6:00 AM71 °FPartly sunny.3 mph81%29.90 "Hg16 mi
5:00 AM71 °FMild.2 mph80%29.89 "HgN/A
4:00 AM72 °FMild.3 mph78%29.89 "HgN/A
3:00 AM72 °FPassing clouds.3 mph76%29.90 "Hg12 mi
2:00 AM74 °FMild.5 mph71%29.89 "HgN/A
1:00 AM74 °FMild.5 mph70%29.89 "HgN/A
Weather by CustomWeather, © 2015

See weather overviewHow to use our weather pages